TITAN 4 CENTAUR R/B, 27169

Orbit data source: Space-Track

TITAN 4 CENTAUR R/B, 27169 is space debris in GEO originally from a launch on Mon, 14 Jan 2002 UTC launched from the Air Force Eastern Test Range (AFETR). Debris objects in space refer to the collection of defunct objects orbiting the Earth. Examples of debris include non-operational satellites, rocket bodies, and fragments generated from explosions, collisions, or faulty payload assembly.

Loading next visibility...
Identifier
27169, 2002-001B
Orbit
GEO
Country
Flag of USUS
Related business
Manufacturer
LMA
Mission
Spacecraft
Bus & Motor
CENTAUR T, RL-10 X2
Mass
~1,840 kg wet, ~1,840 kg dry
Launch date (UTC)
2002-01-14 (24 years ago)
Launch vehicle
Unknown
Launch site
Air Force Eastern Test Range (AFETR)
Object type
Payload
Rocket body
Debris
Shape & HBR
Cyl, 4.5 m
Radar Cross Section
37.970 m²

Expand to show TLE details & history
Last TLE update: 2 days ago

TLE from 2 days ago
0 TITAN 4 CENTAUR R/B
1 27169U 02001B   25259.29582095 -.00000284  00000-0  00000-0 0  9996
2 27169   9.7568  31.3852 0052151 130.1116 230.4115  1.00160963 23637
Epoch: 2025-09-16T07:05Z
TLE epoch observation values (Epoch: 2025-09-16T07:05:58.93Z)
Latitude
0.00002°
Longitude
-70.54583°
Altitude
35,958.972 km
Speed
3.063 km/s
True Right ascension
02h 05m 45s
True Declination
0° 00' 00"
Sunlit
Object was in daylight at epoch
Visualization orbit readout
Latitude
Unknown
Longitude
Unknown
Altitude
Unknown
Speed
Unknown
Apparent Right ascension
Unknown
Apparent Declination
Unknown
Sunlit
N/A
Visualization observer readout
Local Sidereal Time
12:44:06
Azimuth
Unknown
Elevation
Unknown
Doppler factor
Unknown
Orbital elements
Apogee altitude
36,038.777 km
Perigee altitude
35,598.655 km
Semi-major axis
42,196.853 km
Eccentricity
0.00522
Inclination
9.7568°
RAAN
31.3852°
Arg. of periapsis
130.1116°
True anomaly
229.95287°
Mean anomaly
230.4115°
Eccentric anomaly
230.18199°
Mean motion
0.25039 °/min
Orbital period
1,437.74 mins
BSTAR
0
Loading maneuver chart data...
Computing Atmospheric mass density...
Loading historical data...
Loading historical data...
Loading historical data...
Loading historical data...
Loading historical data...
Loading historical data...
Loading historical data...
Other satellites on launch #1 in the year 2002 (2002-01-14 UTC)

Documentation

Showing up to 5 results
|